Location: Namasale
(1.5000°N, 32.6167°E)
Time: 17:05:46
(UTC+00:00)

Vanguard 1 Rocket - Pass Details

Date: 19 April 2021
Orbit: 651 x 4225 km, 34.3° (Epoch: 17 May)

Event Time Altitude Azimuth Distance (km) Brightness Sun altitude
Rises 06:11:44 0° 228° (SW) 8,104 11.8 35.3°
Reaches altitude 10° 06:18:05 10° 224° (SW) 6,695 11.5 36.9°
Maximum altitude 06:37:19 61° 148° (SSE) 2,508 10.4 41.5°
Drops below altitude 10° 06:46:59 10° 69° (ENE) 3,615 11.5 43.9°
Sets 06:49:19 0° 66° (ENE) 4,286 11.6 44.4°
